This is the latest recevied weather packets stored in our database for station/object KK6LVQ-13. If no packets are shown the sender has not sent any weather packets the latest 10 day(s).
| Time | Temp. | Humidity | Pressure | Rain* | Wind** | Luminosity | Snow |
|---|---|---|---|---|---|---|---|
| 1777575470 | 20° C | 58% | 1020 hPa | 0 mm | - | 747 W/m² | - |
| 1777575166 | 20° C | 56% | 1019.7 hPa | 0 mm | - | 741 W/m² | - |
| 1777574862 | 20° C | 55% | 1020.1 hPa | 0 mm | - | 735 W/m² | - |
| 1777574560 | 19.44° C | 55% | 1020 hPa | 0 mm | - | 728 W/m² | - |
| 1777574256 | 18.89° C | 57% | 1020 hPa | 0 mm | - | 722 W/m² | - |
| 1777573951 | 18.89° C | 58% | 1020 hPa | 0 mm | - | 714 W/m² | - |
| 1777573646 | 18.33° C | 61% | 1020.2 hPa | 0 mm | - | 704 W/m² | - |
| 1777573342 | 18.33° C | 61% | 1020.3 hPa | 0 mm | - | 697 W/m² | - |
| 1777573038 | 17.78° C | 60% | 1020.2 hPa | 0 mm | - | 688 W/m² | - |
| 1777572735 | 17.78° C | 62% | 1020.4 hPa | 0 mm | - | 680 W/m² | - |
| 1777572430 | 17.22° C | 62% | 1020.4 hPa | 0 mm | - | 671 W/m² | - |
| 1777572126 | 17.22° C | 65% | 1020.3 hPa | 0 mm | - | 662 W/m² | - |
| 1777571821 | 16.67° C | 68% | 1020.5 hPa | 0 mm | - | 652 W/m² | - |
| 1777571517 | 16.67° C | 69% | 1020.2 hPa | 0 mm | - | 642 W/m² | - |
| 1777571214 | 15.56° C | 72% | 1020.5 hPa | 0 mm | - | 632 W/m² | - |
| 1777570910 | 15.56° C | 74% | 1020.6 hPa | 0 mm | - | 623 W/m² | - |
| 1777570606 | 15° C | 74% | 1020.4 hPa | 0 mm | - | 612 W/m² | - |
| 1777570303 | 15° C | 76% | 1020.4 hPa | 0 mm | - | 601 W/m² | - |
| 1777569998 | 15° C | 78% | 1020.5 hPa | 0 mm | - | 589 W/m² | - |
| 1777569695 | 14.44° C | 80% | 1020.5 hPa | 0 mm | - | 577 W/m² | - |
| 1777569390 | 13.89° C | 81% | 1020.8 hPa | 0 mm | - | 566 W/m² | - |
| 1777569087 | 13.89° C | 80% | 1020.6 hPa | 0 mm | - | 554 W/m² | - |
| 1777568784 | 13.33° C | 81% | 1020.6 hPa | 0 mm | - | 539 W/m² | - |
| 1777568482 | 12.78° C | 83% | 1020.8 hPa | 0 mm | - | 525 W/m² | - |
| 1777568178 | 12.78° C | 83% | 1020.8 hPa | 0 mm | - | 516 W/m² | - |
* Rain latest hour (hover to see other rain measurements)
** Current wind speed in m/s (hover to see current wind gust speed)